Wetbulb
70.60 70.91 71.08 70.66 70.83 71.51 71.58 71.51 71.87 71.97 72.11 72.15 72.41 71.95 71.42 71.13 71.84 72.06 71.42 74.04 76.04 76.36 75.96 76.93 77.73 76.67 76.38 76.29 76.19 75.82 75.74 75.13 75.67 75.23 74.87 74.73 74.89 75.62 75.54 75.41 75.98 74.53 74.69
69.23 69.51 69.51 70.27 70.79 71.74 72.25 72.47 71.66 73.00 72.14 72.34 72.80 72.80 70.58 71.15 71.86 71.29 71.06 71.82 76.03 76.69 76.24 76.86 77.02 77.92 77.49 77.41 77.41 76.92 76.37 76.01 75.69 74.51 74.22 74.42 74.73 74.30 74.77 75.57 75.26 74.83 74.30
70.37 70.56 70.03 70.51 71.57 72.25 72.09 71.18 72.02 72.23 71.49 69.83 70.51 69.77 70.53 71.26 70.72 70.70 70.46 70.66 72.63 76.91 76.45 76.22 77.16 77.52 77.58 76.57 76.84 77.41 77.03 76.51 75.81 74.53 73.79 74.52 75.05 75.48 75.55 75.63 74.95 74.43 74.37
72.18 71.85 71.62 71.44 72.30 70.32 70.82 70.51 71.32 71.64 70.22 68.74 68.94 70.06 70.20 69.97 70.31 70.69 69.69 69.81 70.76 71.84 74.82 76.76 76.99 77.47 76.07 76.96 76.75 76.75 76.87 76.80 76.09 74.61 74.52 74.87 74.99 75.24 75.68 75.61 75.24 75.11 74.39
72.43 71.28 67.57 69.28 70.75 72.84 70.83 69.52 70.93 70.92 72.06 70.21 69.25 68.74 68.88 69.76 70.34 71.21 71.34 70.78 71.04 72.21 71.89 71.78 73.84 74.88 74.70 76.92 77.23 77.07 76.27 76.41 76.27 75.02 74.93 74.48 74.85 74.93 74.54 74.64 74.69 74.92 74.90
72.09 70.24 69.43 69.89 70.45 72.77 71.13 68.21 69.75 72.09 72.28 70.20 68.58 69.36 69.17 69.39 68.97 69.09 71.25 72.52 72.72 72.19 72.74 72.83 73.12 73.46 75.33 77.63 77.47 77.14 75.82 76.43 75.99 75.00 75.52 74.20 74.84 74.85 74.92 74.75 74.62 74.32 74.67
70.75 70.76 71.31 71.85 72.24 72.51 72.12 70.49 71.49 71.32 71.35 71.42 68.95 69.16 68.52 69.14 68.96 67.79 69.05 70.39 70.66 71.62 72.34 73.00 73.14 74.36 74.83 75.87 76.27 77.29 76.09 76.46 75.66 75.01 75.48 74.54 74.42 74.72 74.60 74.49 74.34 74.42 74.45
70.98 71.81 71.87 72.12 72.16 72.69 72.20 72.37 71.75 70.30 70.63 71.79 69.14 66.65 64.98 67.62 68.95 68.16 70.65 70.21 71.31 71.96 72.04 72.51 73.55 74.50 74.70 75.69 76.16 76.39 75.94 76.26 75.22 75.44 75.39 74.92 74.72 74.55 74.27 73.87 73.77 73.97 74.06
71.97 72.67 72.82 71.87 71.73 72.73 72.21 72.42 71.92 72.10 70.92 71.40 71.14 68.60 66.32 65.60 65.79 69.34 71.15 70.70 70.91 71.16 71.54 72.03 72.61 73.94 75.42 76.14 75.96 75.50 75.05 74.27 76.00 75.66 75.39 74.93 74.85 74.67 74.45 73.92 73.69 73.73 73.80
70.78 72.15 72.55 71.89 71.69 71.86 72.76 72.25 72.88 72.53 71.17 70.26 71.33 71.44 69.75 68.51 66.97 67.79 69.95 69.31 70.27 71.75 72.61 72.96 72.63 74.23 74.90 75.40 74.67 74.12 74.19 73.85 74.92 76.11 75.44 74.76 74.51 74.47 74.07 73.75 73.61 73.50 73.25
70.67 71.03 71.67 71.59 72.17 71.46 72.44 72.08 72.71 72.63 72.02 71.69 71.95 71.16 69.96 69.75 67.86 68.05 65.61 66.81 70.89 71.81 73.02 73.73 71.84 73.28 74.86 74.70 73.60 72.75 74.03 74.07 73.79 74.47 75.29 75.06 74.26 74.03 73.86 73.47 73.30 73.03 72.18
69.86 70.89 71.57 71.26 70.96 72.18 71.76 71.83 72.07 72.30 72.58 72.73 72.14 72.27 71.79 70.66 69.60 67.62 67.21 67.05 67.58 70.22 71.40 73.39 73.91 74.32 74.57 74.75 74.77 74.06 73.83 73.47 73.07 72.65 72.83 73.60 73.92 73.47 73.42 73.22 72.88 71.94 71.30
69.60 69.69 71.32 71.74 71.56 71.26 71.86 72.55 72.08 71.95 72.23 72.11 72.38 72.19 72.28 72.10 71.35 70.43 69.60 68.83 67.59 68.58 70.91 72.51 73.82 75.10 74.67 75.24 74.49 74.20 74.16 71.94 71.21 70.41 70.78 71.51 72.19 72.47 72.27 72.13 71.72 71.18 70.76
69.39 71.15 71.15 72.35 72.56 72.82 72.67 72.56 72.06 71.66 71.72 71.73 71.73 71.93 71.86 72.11 71.86 71.86 71.16 70.05 68.29 66.40 68.85 71.33 72.82 74.50 74.24 74.66 74.21 72.99 73.94 70.64 70.25 69.56 69.30 69.77 70.16 70.55 70.56 69.90 69.65 68.78 68.47
70.70 70.67 71.47 71.58 72.21 72.72 73.04 71.78 72.49 72.08 72.65 72.35 72.33 72.06 71.70 72.20 72.15 72.43 72.33 71.30 69.41 66.25 66.52 69.95 71.20 72.80 73.16 74.27 74.33 74.14 74.00 69.89 69.44 68.59 67.93 68.06 68.40 68.64 68.65 68.28 67.83 67.22 66.81
71.13 71.01 70.37 70.78 71.41 71.90 72.19 72.32 72.25 72.44 71.90 72.14 71.94 72.09 72.21 72.00 72.11 72.36 72.99 72.33 70.35 69.76 68.29 69.97 72.10 72.86 74.10 74.77 73.93 74.49 73.20 70.29 68.86 67.81 67.30 67.03 67.21 66.87 67.19 66.82 66.31 66.11 66.03
70.11 70.12 70.26 70.06 70.12 70.31 70.95 71.53 72.00 72.32 71.06 71.90 72.31 72.31 72.30 72.30 72.54 72.68 72.58 72.05 71.37 70.35 68.98 71.12 71.33 72.99 72.87 71.77 73.78 73.19 70.98 69.65 69.02 67.08 66.70 65.92 65.23 65.41 65.32 65.05 64.94 64.74 64.74
70.78 70.83 70.83 70.77 70.39 70.49 71.20 71.29 71.47 72.26 70.99 70.99 71.48 71.33 71.47 71.94 72.00 72.28 72.14 72.37 72.31 72.15 71.03 69.80 70.98 71.40 72.32 70.64 71.89 71.04 69.36 68.64 68.55 66.56 65.09 63.83 63.21 62.93 62.68 62.45 62.31 61.97 61.55
71.35 71.34 71.07 70.58 70.83 70.98 71.13 71.61 71.84 71.92 71.53 71.61 71.78 71.36 71.51 71.73 71.36 71.42 71.87 71.75 72.04 72.20 71.33 70.72 70.66 71.41 71.77 71.61 70.35 68.47 66.78 66.81 67.11 65.45 62.95 62.12 61.78 61.27 60.55 59.66 58.92 57.58 56.89
71.23 70.42 70.36 70.60 71.16 71.23 71.36 71.09 71.13 71.04 71.41 71.81 71.95 71.96 71.87 71.66 71.48 71.67 71.51 71.79 72.29 71.78 71.42 70.95 70.86 71.14 71.31 72.00 70.66 66.19 64.83 65.45 64.87 63.88 61.80 60.96 60.83 60.10 59.23 58.18 57.24 56.72 55.60
70.56 69.85 68.65 68.66 69.05 69.95 70.70 71.10 71.13 70.87 70.94 71.09 71.77 72.10 72.35 72.10 70.38 70.36 71.77 71.93 72.06 71.44 71.16 70.79 70.05 69.82 70.29 69.29 68.63 67.84 66.03 64.46 63.73 63.09 60.12 59.79 59.49 59.02 58.60 58.45 58.23 56.66 55.24
69.51 69.45 69.29 68.54 67.32 68.24 66.45 66.09 69.19 70.11 70.63 71.29 71.18 72.16 72.44 70.96 70.19 67.46 67.01 68.18 70.72 71.38 70.87 70.54 70.74 69.61 70.11 70.61 70.28 68.02 64.78 62.84 61.18 64.21 60.56 58.69 61.15 59.04 58.17 56.73 57.45 55.90 54.99
66.58 68.22 68.09 68.16 68.13 69.11 64.68 64.19 65.90 68.31 68.31 69.18 70.63 71.97 71.92 72.60 70.61 72.52 68.16 66.45 66.68 66.38 68.67 72.12 70.76 70.57 70.88 70.92 70.79 68.11 65.70 66.16 66.00 63.56 61.66 58.74 61.67 58.37 57.48 57.03 57.05 56.06 55.55
58.75 58.79 59.75 59.92 59.90 61.16 60.14 60.13 62.53 65.45 66.69 68.88 70.33 70.59 70.95 71.25 72.09 72.02 72.38 72.33 71.36 71.11 69.99 70.52 72.49 72.93 72.27 71.97 70.96 71.00 68.45 66.45 64.36 63.72 65.45 59.07 60.71 56.90 56.70 56.80 57.17 55.94 55.14
53.20 53.09 53.81 53.48 53.66 54.24 55.15 55.70 57.21 60.11 61.15 63.59 67.81 70.17 70.78 70.91 68.15 64.81 71.89 71.23 71.30 70.56 64.57 63.48 64.66 63.94 63.52 63.28 67.14 67.32 63.74 63.47 60.13 61.69 63.64 61.76 58.93 54.83 55.26 54.80 55.72 55.80 54.33
51.22 51.24 51.72 52.40 52.36 53.02 53.48 53.33 54.14 55.66 56.54 59.01 62.80 67.45 65.14 68.69 63.97 62.36 69.60 71.03 69.91 69.87 67.59 65.65 65.96 64.68 64.36 64.15 62.97 68.29 65.63 64.72 60.49 58.80 60.76 60.16 56.04 56.44 53.88 54.54 55.36 55.41 55.15
MSLP
1019.10 1019.12 1019.11 1019.29 1019.30 1019.16 1019.03 1018.83 1018.75 1018.62 1018.55 1018.19 1017.72 1017.58 1017.42 1017.38 1017.37 1017.53 1017.68 1017.53 1018.00 1018.31 1018.36 1018.45 1018.39 1018.31 1018.32 1018.38 1018.59 1018.61 1018.81 1018.79 1018.82 1018.72 1018.61 1018.61 1018.60 1018.62 1018.73 1018.84 1018.94 1019.16 1019.25
1019.00 1018.98 1019.04 1019.10 1019.21 1019.27 1019.05 1018.91 1018.68 1018.60 1018.47 1018.06 1017.57 1017.29 1017.19 1017.11 1017.26 1017.47 1017.62 1017.64 1017.60 1017.93 1018.01 1018.10 1018.00 1017.85 1017.84 1017.95 1018.15 1018.33 1018.45 1018.51 1018.50 1018.52 1018.55 1018.55 1018.56 1018.51 1018.56 1018.72 1018.85 1019.07 1019.21
1018.96 1018.92 1018.96 1019.01 1019.01 1019.15 1019.21 1018.94 1018.59 1018.47 1018.33 1017.94 1017.75 1017.42 1017.23 1017.14 1017.27 1017.33 1017.54 1017.59 1017.71 1017.57 1017.68 1017.76 1017.80 1017.75 1017.74 1017.69 1017.68 1017.88 1018.04 1018.18 1018.34 1018.51 1018.58 1018.54 1018.45 1018.32 1018.44 1018.59 1018.82 1019.00 1019.10
1018.79 1018.86 1018.88 1018.90 1018.97 1019.31 1019.25 1019.02 1018.91 1018.69 1018.78 1018.50 1018.22 1017.68 1017.54 1017.53 1017.72 1017.59 1017.59 1017.64 1017.62 1017.59 1017.53 1017.34 1017.58 1017.62 1017.72 1017.63 1017.62 1017.74 1017.79 1017.96 1018.15 1018.34 1018.45 1018.36 1018.34 1018.41 1018.50 1018.59 1018.68 1018.79 1018.91
1018.66 1018.84 1018.91 1018.96 1019.07 1019.27 1019.21 1019.22 1019.12 1019.14 1019.05 1018.99 1018.59 1018.23 1017.89 1017.83 1017.69 1017.35 1017.52 1017.49 1017.46 1017.60 1017.75 1017.44 1017.27 1017.57 1017.63 1017.40 1017.55 1017.65 1017.85 1017.99 1018.12 1018.27 1018.36 1018.37 1018.42 1018.47 1018.57 1018.66 1018.73 1018.82 1018.83
1018.64 1018.91 1019.00 1019.05 1019.16 1019.28 1019.37 1019.38 1019.26 1019.14 1019.21 1019.06 1018.75 1018.51 1018.18 1018.00 1017.86 1017.65 1017.62 1017.53 1017.65 1017.66 1017.64 1017.57 1017.53 1017.20 1017.19 1017.11 1017.36 1017.63 1017.89 1018.03 1018.10 1018.25 1018.36 1018.40 1018.48 1018.50 1018.52 1018.53 1018.60 1018.68 1018.75
1018.60 1018.88 1018.96 1019.01 1019.08 1019.29 1019.33 1019.39 1019.37 1019.37 1019.31 1018.93 1018.94 1018.65 1018.37 1018.15 1017.89 1017.67 1017.81 1017.83 1017.80 1017.67 1017.56 1017.34 1017.28 1016.98 1016.85 1016.77 1017.12 1017.49 1017.76 1017.93 1018.05 1018.17 1018.33 1018.43 1018.45 1018.53 1018.56 1018.55 1018.58 1018.63 1018.66
1018.50 1018.74 1018.79 1018.96 1019.00 1019.16 1019.36 1019.41 1019.47 1019.42 1019.31 1019.13 1019.34 1019.49 1019.08 1018.54 1017.99 1017.82 1017.74 1017.77 1017.60 1017.57 1017.44 1017.32 1017.07 1016.80 1016.57 1016.71 1017.06 1017.23 1017.53 1017.72 1017.85 1018.04 1018.30 1018.49 1018.52 1018.52 1018.58 1018.64 1018.67 1018.71 1018.71
1018.35 1018.54 1018.62 1018.73 1018.93 1019.04 1019.21 1019.25 1019.32 1019.36 1019.33 1019.26 1019.29 1019.48 1019.52 1019.38 1018.96 1018.16 1017.84 1017.69 1017.46 1017.26 1017.14 1016.85 1016.81 1016.63 1016.57 1016.66 1016.93 1017.26 1017.44 1017.75 1017.87 1017.94 1018.19 1018.42 1018.58 1018.61 1018.65 1018.74 1018.76 1018.78 1018.80
1018.01 1018.20 1018.39 1018.51 1018.79 1018.97 1019.14 1019.06 1019.16 1019.31 1019.44 1019.41 1019.33 1019.29 1019.40 1019.35 1019.22 1018.87 1018.22 1017.90 1017.53 1017.38 1017.24 1016.83 1016.61 1016.59 1016.76 1017.05 1017.04 1017.20 1017.34 1017.66 1017.93 1017.99 1018.13 1018.36 1018.50 1018.58 1018.63 1018.70 1018.77 1018.81 1018.82
1017.65 1017.90 1018.16 1018.45 1018.64 1018.91 1019.10 1019.09 1018.99 1019.21 1019.29 1019.40 1019.41 1019.41 1019.38 1019.47 1019.46 1019.39 1019.02 1018.48 1017.57 1017.23 1017.16 1016.96 1016.85 1016.94 1016.97 1017.14 1017.21 1017.35 1017.33 1017.57 1017.88 1017.97 1018.13 1018.32 1018.45 1018.60 1018.67 1018.78 1018.83 1018.87 1018.89
1017.65 1017.63 1017.87 1018.22 1018.49 1018.61 1018.87 1018.89 1019.10 1019.18 1019.24 1019.23 1019.27 1019.40 1019.42 1019.32 1019.31 1019.34 1019.33 1018.97 1018.57 1017.61 1017.28 1017.16 1017.06 1017.00 1017.06 1017.25 1017.21 1017.24 1017.43 1017.67 1017.85 1017.95 1018.13 1018.31 1018.43 1018.56 1018.68 1018.82 1018.94 1019.00 1019.00
1017.57 1017.39 1017.52 1017.83 1018.07 1018.20 1018.41 1018.63 1018.93 1018.99 1019.07 1019.20 1019.23 1019.24 1019.25 1019.24 1019.13 1019.11 1019.17 1019.01 1018.81 1018.26 1017.58 1017.31 1017.25 1017.14 1017.23 1017.27 1017.33 1017.29 1017.53 1017.77 1017.95 1018.13 1018.26 1018.35 1018.50 1018.69 1018.87 1018.97 1019.12 1019.20 1019.18
1016.97 1016.91 1017.15 1017.43 1017.66 1017.85 1018.03 1018.19 1018.58 1018.67 1018.72 1018.87 1019.00 1019.13 1019.03 1018.93 1019.10 1018.98 1018.89 1018.89 1018.82 1018.59 1018.09 1017.45 1017.31 1017.11 1017.16 1017.35 1017.47 1017.60 1017.75 1017.83 1018.01 1018.31 1018.42 1018.54 1018.72 1018.94 1019.10 1019.27 1019.41 1019.56 1019.63
1016.71 1016.91 1016.88 1017.12 1017.23 1017.44 1017.61 1017.96 1018.26 1018.33 1018.38 1018.40 1018.50 1018.65 1018.81 1018.60 1018.75 1018.66 1018.63 1018.69 1018.67 1018.61 1018.20 1017.52 1017.41 1017.12 1017.19 1017.22 1017.38 1017.61 1017.74 1017.97 1018.01 1018.25 1018.42 1018.69 1018.95 1019.21 1019.34 1019.51 1019.70 1019.82 1019.91
1016.35 1016.52 1016.79 1016.83 1016.82 1017.02 1017.31 1017.64 1017.76 1017.84 1018.09 1017.98 1018.05 1018.16 1018.22 1018.22 1018.27 1018.34 1018.23 1018.33 1018.51 1018.50 1018.32 1017.74 1017.23 1017.21 1017.18 1017.16 1017.27 1017.46 1017.79 1018.04 1018.36 1018.47 1018.74 1018.87 1019.16 1019.46 1019.62 1019.85 1020.02 1020.14 1020.18
1015.88 1016.06 1016.20 1016.38 1016.49 1016.55 1016.71 1016.98 1017.12 1017.21 1017.52 1017.53 1017.63 1017.64 1017.65 1017.77 1017.88 1017.96 1018.01 1017.95 1017.99 1018.25 1018.21 1017.74 1017.59 1017.10 1017.20 1017.33 1017.31 1017.54 1017.81 1018.05 1018.43 1018.76 1019.10 1019.21 1019.43 1019.68 1019.92 1020.13 1020.21 1020.34 1020.42
1015.28 1015.49 1015.75 1015.96 1015.97 1016.08 1016.20 1016.40 1016.55 1016.62 1016.78 1016.73 1016.75 1017.14 1017.16 1017.23 1017.38 1017.54 1017.71 1017.58 1017.49 1017.56 1017.73 1017.52 1017.36 1017.05 1017.05 1017.20 1017.41 1017.77 1018.03 1018.36 1018.60 1018.89 1019.09 1019.53 1019.68 1019.92 1020.19 1020.45 1020.57 1020.68 1020.87
1014.75 1014.97 1015.09 1015.20 1015.26 1015.37 1015.51 1015.62 1015.77 1015.89 1016.00 1016.01 1016.01 1016.13 1016.23 1016.59 1016.73 1016.89 1017.13 1017.21 1017.15 1017.07 1017.25 1017.27 1017.03 1016.91 1016.89 1017.11 1017.53 1017.99 1018.42 1018.72 1019.06 1019.36 1019.50 1019.73 1019.98 1020.22 1020.49 1020.78 1020.97 1021.20 1021.38
1014.12 1014.19 1014.04 1014.25 1014.47 1014.51 1014.70 1014.86 1014.91 1015.04 1015.20 1015.20 1015.21 1015.41 1015.51 1015.71 1015.82 1015.93 1016.26 1016.41 1016.54 1016.58 1016.83 1016.96 1016.92 1016.83 1016.81 1016.98 1017.24 1017.81 1018.56 1018.93 1019.23 1019.33 1019.62 1019.91 1020.26 1020.58 1020.87 1021.15 1021.28 1021.43 1021.58
1013.36 1013.48 1013.73 1014.04 1014.29 1014.59 1014.48 1014.46 1014.53 1014.50 1014.60 1014.57 1014.52 1014.53 1014.61 1014.77 1014.87 1015.03 1015.39 1015.49 1015.80 1015.93 1016.19 1016.34 1016.47 1016.53 1016.54 1016.77 1016.84 1017.28 1018.00 1018.63 1019.25 1019.58 1019.71 1019.98 1020.29 1020.69 1021.12 1021.33 1021.49 1021.60 1021.95
1013.14 1013.48 1013.59 1013.87 1013.98 1014.05 1013.99 1013.99 1014.11 1014.17 1014.21 1014.13 1013.78 1013.50 1013.63 1013.82 1013.99 1014.10 1014.29 1014.51 1014.77 1015.01 1015.18 1015.41 1015.50 1015.66 1015.63 1015.83 1016.21 1016.69 1017.44 1018.23 1018.90 1019.03 1019.38 1019.98 1020.40 1020.94 1021.19 1021.39 1021.55 1021.72 1021.91
1013.37 1013.55 1013.58 1013.58 1013.55 1013.56 1013.57 1013.71 1013.73 1013.71 1013.55 1013.42 1013.33 1012.77 1012.60 1012.77 1012.98 1013.11 1013.24 1013.53 1013.74 1013.84 1013.94 1014.15 1014.31 1014.37 1014.52 1014.69 1015.19 1015.86 1016.30 1016.73 1017.05 1017.87 1018.53 1019.85 1020.33 1020.77 1021.10 1021.51 1021.80 1021.99 1022.36
1014.04 1014.30 1014.15 1013.88 1013.65 1013.24 1013.35 1013.42 1013.42 1013.21 1012.91 1012.55 1012.20 1011.90 1011.68 1011.57 1011.91 1012.29 1012.47 1012.63 1012.76 1012.75 1012.96 1013.20 1013.23 1013.23 1013.33 1013.69 1014.11 1014.35 1015.10 1016.27 1017.07 1017.65 1017.79 1019.13 1020.12 1020.71 1021.23 1021.53 1022.13 1022.17 1022.58
1014.89 1015.02 1014.89 1014.72 1014.49 1013.82 1013.60 1013.39 1013.20 1012.59 1011.94 1011.39 1010.98 1010.76 1010.73 1010.38 1010.69 1011.23 1011.60 1011.98 1011.92 1011.81 1011.97 1012.28 1012.33 1012.45 1012.77 1013.20 1013.56 1014.44 1015.21 1015.77 1016.77 1017.24 1017.63 1018.32 1019.69 1020.78 1021.46 1021.94 1022.08 1022.25 1022.77
1015.43 1015.08 1014.96 1014.97 1014.81 1014.26 1013.76 1013.35 1013.02 1012.50 1011.64 1010.97 1010.44 1009.94 1009.88 1009.90 1010.22 1010.59 1011.12 1011.05 1011.12 1011.07 1011.68 1012.07 1012.50 1012.85 1012.84 1013.22 1013.69 1013.60 1014.29 1014.73 1015.91 1017.12 1017.49 1018.16 1019.08 1020.00 1021.62 1022.03 1021.94 1022.39 1022.77
Wind_Speed
2 2 2 1 2 3 3 4 3 3 4 6 7 6 5 5 6 2 3 10 12 15 16 15 14 13 13 11 10 9 10 9 7 8 7 4 5 5 6 7 7 6 6
3 3 2 1 1 2 3 3 3 2 3 5 6 5 3 1 1 3 3 3 9 11 13 13 14 13 13 11 10 9 7 6 6 2 3 2 4 5 5 5 4 4 5
3 3 2 2 2 1 4 4 4 2 4 4 3 4 3 1 2 4 4 4 3 10 12 13 13 12 11 10 8 6 4 4 3 2 2 2 2 4 5 5 4 3 4
3 3 2 1 1 2 2 2 2 3 3 3 3 3 3 3 4 5 3 3 3 4 7 13 12 12 11 9 6 4 3 2 2 0 2 1 2 2 3 3 4 4 5
4 3 1 2 2 1 1 1 1 2 2 2 2 2 3 3 3 4 3 4 4 4 3 8 12 9 11 8 5 3 2 1 2 2 2 2 3 4 3 1 2 2 4
2 2 1 2 1 1 1 1 1 2 2 1 3 3 2 3 3 2 4 2 2 4 5 6 4 5 7 8 6 3 3 3 3 4 2 3 3 3 3 2 1 1 2
4 4 2 2 1 2 2 0 1 1 2 3 2 2 2 2 5 3 2 3 3 3 5 4 5 3 2 6 6 4 4 5 4 4 3 3 4 2 3 4 3 2 0
5 5 4 2 2 2 2 0 1 0 0 3 2 1 3 4 3 2 3 2 3 2 3 3 4 3 2 2 4 4 3 2 4 4 4 3 3 4 3 3 4 4 3
5 5 5 3 2 1 2 2 0 1 1 1 3 2 1 1 3 2 4 3 5 4 4 5 2 2 2 2 4 4 4 3 3 2 5 4 2 3 3 4 4 4 5
6 6 5 4 3 2 2 2 2 1 1 0 1 2 1 1 0 3 2 4 3 4 5 4 2 2 3 1 2 2 1 5 3 2 5 5 4 2 3 4 5 5 5
5 5 5 4 3 2 2 3 2 3 2 2 1 1 0 1 1 1 2 4 3 2 4 5 3 1 3 3 2 0 1 1 2 4 5 5 5 4 4 5 5 5 5
3 4 5 5 4 3 4 3 3 3 3 2 2 2 2 2 2 1 1 2 3 4 3 4 4 2 2 1 1 1 1 2 1 3 4 6 6 5 5 6 5 6 5
3 6 5 5 4 5 5 4 4 4 3 2 3 3 2 3 2 2 2 1 1 2 3 1 2 2 2 2 2 3 6 5 4 4 3 5 7 8 7 7 7 8 8
4 3 4 4 5 5 4 4 4 4 4 4 5 4 3 4 4 2 2 2 1 2 2 4 1 1 3 3 3 2 3 7 6 4 6 7 8 8 9 9 10 9 10
4 5 5 5 5 5 5 4 4 6 4 4 5 5 5 4 4 4 3 3 2 2 2 2 2 2 2 2 2 3 4 5 7 7 7 9 9 9 9 10 10 10 10
4 5 5 6 5 4 3 4 5 6 5 5 5 5 5 5 5 4 4 4 4 3 3 3 2 2 1 2 3 5 5 7 6 8 8 10 9 9 10 10 10 10 11
6 6 6 5 6 5 6 5 7 7 8 7 6 6 7 5 4 4 3 3 4 4 4 2 3 1 3 3 3 5 5 6 6 9 8 10 10 10 10 10 10 10 10
6 6 5 5 5 6 6 7 8 7 9 9 9 7 9 6 7 6 5 6 5 5 4 6 2 3 4 3 4 5 5 4 6 8 11 10 11 11 11 10 10 11 11
5 5 6 7 7 7 7 8 8 9 8 10 9 9 10 8 8 6 6 6 5 4 5 4 4 2 2 3 3 4 4 6 4 10 10 11 11 11 11 11 11 11 10
9 9 10 7 6 6 6 6 7 8 9 9 10 9 11 10 11 9 8 8 7 5 5 5 5 4 3 2 4 4 3 2 5 6 7 8 10 12 12 11 12 12 11
10 10 7 5 4 6 5 6 6 7 8 9 9 10 11 12 14 12 7 8 8 7 5 6 5 3 3 3 6 4 3 5 4 3 5 6 6 6 7 9 11 13 12
5 4 6 3 5 6 8 9 9 7 7 9 10 9 9 12 14 16 16 15 11 9 9 6 6 7 8 6 5 6 6 4 4 5 4 5 4 4 4 4 11 13 12
4 4 6 6 6 7 9 10 11 7 8 11 12 10 9 9 13 12 14 16 15 15 15 10 10 10 8 9 7 8 8 8 5 7 8 5 3 5 4 5 11 12 10
5 5 6 8 9 8 9 8 9 8 7 10 12 13 12 12 12 12 10 11 12 12 14 11 11 10 10 7 11 11 10 6 6 6 5 4 3 3 4 5 9 10 9
4 4 5 8 9 12 16 18 15 9 9 12 11 11 12 12 12 15 10 11 12 11 7 10 9 6 8 9 10 7 7 9 3 4 4 3 4 4 3 3 4 9 8
3 4 5 5 8 10 13 16 14 9 12 10 11 14 15 16 13 14 12 12 12 12 9 8 6 3 2 4 7 6 8 10 5 3 2 3 7 5 3 1 3 4 4
Wind_Direction
210 200 225 213 268 299 289 298 300 287 278 273 272 255 253 246 244 224 247 237 207 207 222 235 246 247 249 257 267 273 273 278 279 271 271 267 247 220 211 206 209 216 223
195 203 210 220 256 272 295 289 296 331 307 285 280 286 285 227 201 198 213 234 243 227 229 237 247 257 260 263 263 258 260 270 269 248 305 267 224 211 209 199 193 212 228
230 195 202 220 244 301 323 315 305 358 337 323 310 319 318 289 218 215 210 216 241 249 249 252 262 267 274 270 268 275 286 275 296 85 305 289 247 205 187 181 181 199 230
196 195 165 211 282 1 345 319 327 332 25 336 325 319 347 2 344 294 258 236 220 252 278 269 260 269 285 249 252 274 292 302 302 336 308 74 103 119 162 179 194 189 202
141 159 174 229 102 11 357 351 333 1 359 303 285 348 7 354 335 310 279 243 242 230 261 286 278 273 266 221 197 223 277 276 279 279 295 135 125 118 121 289 280 238 217
155 173 170 183 171 138 59 -0 32 338 314 317 308 319 323 322 317 326 315 317 248 264 265 266 272 249 245 169 157 154 175 204 239 269 265 141 130 121 114 92 65 269 232
172 217 214 212 163 173 141 341 347 13 304 27 351 328 332 316 305 333 333 297 287 262 279 258 223 225 188 125 155 140 175 189 194 237 220 185 143 117 96 85 77 72 115
181 200 215 212 225 137 134 351 40 189 302 35 67 354 357 334 325 347 334 324 309 295 292 244 250 233 231 134 151 140 139 187 185 211 172 197 156 129 105 83 72 60 42
186 202 216 220 195 148 152 168 186 25 34 348 59 128 17 293 315 330 353 328 320 322 319 289 265 220 172 155 136 115 136 163 209 210 159 160 158 128 109 87 65 51 38
192 190 206 222 222 206 221 176 172 172 144 347 334 46 46 165 102 334 341 315 321 342 345 344 244 200 147 126 118 129 155 155 190 167 160 149 142 131 102 83 74 69 63
229 199 193 209 223 203 231 244 203 196 184 176 204 278 69 44 49 131 296 326 325 332 13 7 353 298 104 138 115 50 346 283 186 130 128 133 125 118 106 91 85 78 62
237 214 198 203 220 218 216 230 253 224 232 231 200 224 228 206 216 173 204 282 292 313 333 12 23 51 106 119 98 22 281 196 184 106 107 107 103 106 105 102 97 81 61
203 221 198 204 203 218 222 213 236 240 221 225 233 241 227 231 206 180 172 242 294 312 318 23 2 102 143 136 110 94 138 152 134 117 110 95 94 94 96 92 86 80 74
220 190 205 212 223 221 228 207 220 234 228 231 240 241 260 241 226 209 208 171 296 289 298 266 236 184 147 178 191 103 142 129 129 131 126 111 102 95 94 93 90 85 80
218 230 212 220 228 228 227 219 226 237 221 230 233 235 244 255 241 229 217 207 185 250 276 297 285 193 221 221 184 154 153 135 133 135 120 109 100 105 104 101 95 91 87
225 220 208 229 237 233 241 235 242 245 225 235 239 230 238 250 250 243 232 215 207 201 244 225 256 237 213 163 142 153 142 124 132 123 121 116 115 108 101 99 98 95 92
203 217 224 209 219 224 232 231 235 239 227 236 237 231 244 231 238 240 233 224 209 188 226 275 255 274 192 183 132 129 130 135 131 130 124 119 119 108 102 104 104 101 95
202 212 220 220 228 233 241 235 242 238 226 230 229 230 248 246 239 228 222 234 226 208 205 239 251 242 208 200 162 141 141 123 125 126 126 125 116 110 110 107 103 95 87
202 201 204 217 218 225 230 229 230 239 232 235 232 219 234 230 243 237 223 238 238 229 223 232 242 244 188 163 131 101 111 113 105 114 109 110 113 116 113 107 97 88 86
188 200 210 206 212 216 226 234 225 228 231 233 231 228 236 223 230 228 229 227 230 237 217 232 246 246 225 165 157 147 162 138 141 144 121 118 119 114 111 109 109 107 102
206 215 211 207 209 248 246 234 231 231 241 247 241 231 232 231 228 225 219 231 220 225 218 225 234 217 204 187 202 169 149 152 146 147 134 131 130 120 122 124 114 114 112
238 284 283 235 211 232 232 239 251 262 262 258 252 245 238 231 227 225 221 226 207 220 223 218 227 223 221 208 178 179 147 171 189 180 138 134 125 105 115 128 134 132 127
33 339 326 319 288 260 229 240 239 241 253 254 255 250 251 247 234 235 223 229 230 220 221 215 224 219 227 210 183 176 181 188 186 155 144 138 151 123 133 130 139 136 129
22 354 338 345 327 307 323 318 303 276 250 254 249 247 240 248 239 218 224 233 233 226 224 221 226 232 224 192 196 195 186 152 95 155 160 131 155 104 121 123 147 137 133
20 3 339 335 327 311 320 317 316 298 279 267 259 253 249 249 235 213 218 235 242 240 211 220 235 241 225 210 171 139 167 166 140 175 195 116 146 107 100 139 152 140 141
20 6 349 310 301 298 300 293 297 293 282 273 264 253 230 234 232 210 217 229 240 243 208 208 231 239 171 154 166 212 176 176 136 120 179 116 137 139 123 80 155 142 152